Location: *
(51.4660°N, 0.3360°W)
Time: 15:48:52
(UTC+00:00)

Cosmos 2056 Rocket - Pass Details

Date: 19 September 2019
Orbit: 742 x 800 km, 74.0° (Epoch: 17 October)

Event Time Altitude Azimuth Distance (km) Brightness Sun altitude
Rises 19:13:10 0° 174° (S) 3,296 6.6 -10.9°
Reaches altitude 10° 19:15:45 10° 165° (SSE) 2,371 5.7 -11.3°
Maximum altitude 19:20:33 34° 102° (ESE) 1,308 4.2 -12.0°
Drops below altitude 10° 19:25:22 10° 40° (NE) 2,375 5.8 -12.7°
Sets 19:27:56 0° 31° (NNE) 3,302 6.7 -13.1°
